Regional Weather Roundup
Issued by NWS Newport/Morehead, NC

Current Version | Previous Version | Text Only | Print | Product List | Glossary On
Versions: 1 2 3 4 5 6 7 8 9 10 11 12 13 14 15 16 17 18 19 20 21 22 23 24 25 26 27 28 29 30 31 32 33 34 35 36 37 38 39 40 41 42 43 44 45 46 47 48 49 50
000 ASUS42 KMHX 161013 RWRMHX WEATHER ROUNDUP FOR EASTERN NORTH CAROLINA NATIONAL WEATHER SERVICE NEWPORT/MOREHEAD CITY NC 500 AM EST MON JAN 16 2017 NOTE: "FAIR" INDICATES FEW OR NO CLOUDS BELOW 12,000 FEET WITH NO SIGNIFICANT WEATHER AND/OR OBSTRUCTIONS TO VISIBILITY NCZ015>017-031-032-045>047-102-103-161100- NORTH COAST CITY SKY/WX TMP DP RH WIND PRES REMARKS EDENTON CLOUDY 44 36 73 CALM 30.42S ELIZABETH CITY CLOUDY 42 37 82 NE15 30.42R KITTY HAWK NOT AVBL MANTEO CLOUDY 45 39 79 NE14 30.40R $$ NCZ045>047-081-094-103-104-161100- CENTRAL COAST CITY SKY/WX TMP DP RH WIND PRES REMARKS FRISCO CLOUDY 48 42 80 NE10G18 30.36S $$ NCZ095-097-098-100-101-161100- SOUTHERN COAST CITY SKY/WX TMP DP RH WIND PRES REMARKS BEAUFORT CLOUDY 45 40 82 NE9 30.37R CEDAR ISLAND NOT AVBL JACKSONVILLE CLOUDY 45 35 68 NE9 30.37R PINEY ISLAND CLOUDY N/A N/A N/A N7 30.37R WILMINGTON CLOUDY 48 43 82 NE10 30.35R $$ NCZ011>013-027>030-043-044-078>080-089-090>093-098-161100- COASTAL PLAIN CITY SKY/WX TMP DP RH WIND PRES REMARKS AHOSKIE N/A 39 30 70 N6 30.43S CLINTON CLOUDY 47 40 78 NE3 30.38R ELIZABETHTOWN CLOUDY 47 43 85 CALM 30.35S GOLDSBORO LGT RAIN 43 39 87 E7 30.37S GREENVILLE CLOUDY 43 32 65 E6 30.40S HAVELOCK CLOUDY 44 38 79 N7 30.39R KENANSVILLE CLOUDY 45 37 76 E5 30.38S KINSTON CLOUDY 43 37 79 NE6 30.40S NEW BERN CLOUDY 43 38 82 N6 30.40R RICHLANDS CLOUDY 44 36 73 NE8 30.38R ROCKY MOUNT CLOUDY 44 24 45 NE7 30.41R WASHINGTON CLOUDY 42 35 78 NE5 30.41R WHITEVILLE CLOUDY 50 46 87 NE6 30.33S $$ AMZ130-135-150-152-154-156-158-170-250-252-270-ANZ085-086-088-633-658-670-161100- MARINE OBSERVATIONS STATION/POSITION TIME TEMP WIND PRES WAVE SWELL AIR SEA DIR/SP/G HT/PER HT/PER (UTC) (F) (DEG/KT/KT) (MB) (FT/S) (FT/S) CHESAPEAKE LIGHT NOT AVBL 64 E VA BEACH 0950 49 57 10/ 14/ 17 1028.8 3/ 8 2/ 8 DUCK 0948 44 44 10/ 14/ 16 1029.1 2 E DUCK 0930 45 N/A 3/ 6 2/11 OREGON INLET 0942 46 48 10/ 11/ 17 1028.9 13E OREGON INLT NOT AVBL HATTERAS CG 0948 47 53 30/ 11/ 16 1027.6 DIAMOND BUOY 0950 57 74 40/ 17/ 21 1027.1 5/ 5 2/10 CAPE LOOKOUT 0900 45 10/ 11/ 15 1027.4 BEAUFORT LAB 0948 44 49 30/ 7/ 12 1027.1 30 SE NEW RVR IN 0908 50 64 50/ 16/ 21 1027.2 30 SE NEW RVR IN 0943 65 N/A 5/11 2/11 27 SE WRIGHTSVLE 0908 56 70 70/ 16/ 23 1026.3 5 SE WRIGHTSVLE 0908 50 50/ 14/ 23 1027.1 225 S CAPE HAT 0950 68 71 90/ 4/ 6 1025.8 4/ 9 3/ 9 41 SE CHARLESTON 0850 69 71 70/ 4/ 6 1024.7 3/10 3/10 $$

USA.gov is the U.S. government's official web portal to all federal, state and local government web resources and services.